Regional Weather Roundup
Issued by NWS Newport/Morehead, NC

Current Version | Previous Version | Text Only | Print | Product List | Glossary On
Versions: 1 2 3 4 5 6 7 8 9 10 11 12 13 14 15 16 17 18 19 20 21 22 23 24 25 26 27 28 29 30 31 32 33 34 35 36 37 38 39 40 41 42 43 44 45 46 47 48 49 50
142
ASUS42 KMHX 241525
RWRMHX
WEATHER ROUNDUP FOR EASTERN NORTH CAROLINA
NATIONAL WEATHER SERVICE NEWPORT/MOREHEAD CITY NC
1100 AM EDT TUE MAY 24 2016

NOTE: "FAIR" INDICATES FEW OR NO CLOUDS BELOW 12,000 FEET
WITH NO SIGNIFICANT WEATHER AND/OR OBSTRUCTIONS TO VISIBILITY

NCZ015>017-031-032-045>047-102-103-241600-
NORTH COAST

CITY           SKY/WX    TMP DP  RH WIND       PRES   REMARKS
EDENTON        SUNNY     73  73 100 W10       30.07S
ELIZABETH CITY SUNNY     72  57  59 W12       30.05S
KITTY HAWK     SUNNY     74  56  54 W8        30.05R
MANTEO         SUNNY     71  57  61 W9        30.06S

$$

NCZ045>047-081-094-103-104-241600-
CENTRAL COAST

CITY           SKY/WX    TMP DP  RH WIND       PRES   REMARKS
FRISCO         SUNNY     70  55  59 W10G20    30.09S

$$

NCZ095-097-098-100-101-241600-
SOUTHERN COAST

CITY           SKY/WX    TMP DP  RH WIND       PRES   REMARKS
BEAUFORT       SUNNY     73  53  49 W13       30.11F
CEDAR ISLAND   NOT AVBL
JACKSONVILLE   SUNNY     73  55  53 W10       30.11F
PINEY ISLAND     N/A    N/A N/A N/A W15       30.10
WILMINGTON     SUNNY     73  52  47 W10       30.14S


$$

NCZ011>013-027>030-043-044-078>080-089-090>093-098-241600-
COASTAL PLAIN

CITY           SKY/WX    TMP DP  RH WIND       PRES   REMARKS
AHOSKIE        SUNNY     72  58  61 CALM      30.07S
CLINTON        SUNNY     74  57  56 W9        30.14S
ELIZABETHTOWN  SUNNY     73  53  49 W7        30.15S
GOLDSBORO      SUNNY     74  56  54 W10       30.10S
GREENVILLE     SUNNY     73  59  60 W9        30.11S
HAVELOCK       SUNNY     74  56  53 W12       30.12F
KENANSVILLE    SUNNY     73  54  50 W9        30.13S
KINSTON        SUNNY     73  55  53 W5        30.12S
NEW BERN       SUNNY     73  57  57 NW9       30.12F
RICHLANDS      SUNNY     74  58  57 W8        30.13S
ROCKY MOUNT    SUNNY     73  57  57 SW9       30.10S
WASHINGTON     SUNNY     73  57  57 W10       30.08F
WHITEVILLE     SUNNY     73  53  50 N5        30.15F

$$

AMZ130-135-150-152-154-156-158-170-250-252-270-ANZ085-086-088-633-658-670-241600-
MARINE OBSERVATIONS

STATION/POSITION TIME  TEMP    WIND        PRES    WAVE   SWELL
                       AIR SEA DIR/SP/G            HT/PER HT/PER
                 (UTC) (F)     (DEG/KT/KT) (MB)    (FT/S) (FT/S)
CHESAPEAKE LIGHT 1500   64     260/  9/ 10 1017.4
64 E VA BEACH    1450   59 56  230/ 12/ 14 1016.6    4/ 9   3/ 9
DUCK             1500   66 61  240/ 12/ 16 1016.9
2 E DUCK         1511      62                N/A     3/ 8   2/11
OREGON INLET     1500   67 63  220/  9/ 10 1017.8
13E OREGON INLT  1500      62                N/A     3/11   3/11
HATTERAS CG      1500   67 66  270/ 14/ 18 1018.5
DIAMOND BUOY     1450   66 71  280/ 12/ 14 1019.3    4/ 9   3/ 9
CAPE LOOKOUT     1500   69     270/ 10/ 11 1019.6
BEAUFORT LAB     1500   71 66  310/  5/ 10 1018.9
30 SE NEW RVR IN 1425      73                N/A     3/ 9
27 SE WRIGHTSVLE 1508   69 73  280/  8/ 10 1020.6
5 SE WRIGHTSVLE  1508   71 72  260/  6/  8 1021.1
225 S CAPE HAT   1450   73 78  310/  8/ 12 1020.1    5/ 6   5/ 6
41 SE CHARLESTON 1350   71 75  350/  4/  6 1021.0    2/ 8   2/ 8

$$




USA.gov is the U.S. government's official web portal to all federal, state and local government web resources and services.